Regional Weather Roundup
Issued by NWS New Orleans/Baton Rouge, LA

Home | Current Version | Previous Version | Graphics & Text | Print | Product List | Glossary On
Versions: 1 2 3 4 5 6 7 8 9 10 11 12 13 14 15 16 17 18 19 20 21 22 23 24 25 26 27 28 29 30 31 32 33 34 35 36 37 38 39 40 41 42 43 44 45 46 47 48 49 50
429
ASUS44 KLIX 021205
RWRLIX
NEW ORLEANS REGIONAL WEATHER ROUNDUP
NATIONAL WEATHER SERVICE NEW ORLEANS LA
700 AM CDT TUE SEP 02 2014

NOTE: "FAIR" INDICATES FEW OR NO CLOUDS BELOW 12,000 FEET WITH NO
      SIGNIFICANT WEATHER AND/OR OBSTRUCTIONS TO VISIBILITY.
      SKY/WX - SKY CONDITION AND SIGNIFICANT WEATHER.
      TMP - AIR TEMPERATURE.     DP    - DEWPOINT TEMPERATURE.
      RH  - RELATIVE HUMIDITY.   PRES  - PRESSURE.
      HI  - HEAT INDEX.          WCI   - WIND CHILL INDEX.

*  THESE STATIONS ARE NOT NWS OR FAA STATIONS AND ARE NOT UNDER
   NWS QUALITY CONTROL.

LAZ038-040-048-061>063-065>067-069-021300-
SOUTHEAST LOUISIANA

CITY           SKY/WX    TMP DP  RH WIND       PRES   REMARKS
N.O. AUDUBON     N/A     78  78  99 MISG        N/A
6HR MIN TEMP:  78; 6HR MAX TEMP:  82;

N.O. INTL ARPT MOCLDY    80  76  87 SE3       30.05R
6HR MIN TEMP:  78; 6HR MAX TEMP:  80;

N.O. LAKEFRONT MOCLDY    79  76  90 SE3       30.05R
6HR MIN TEMP:  78; 6HR MAX TEMP:  80; 6HR PCP:  0.03;

N.O. DOWNTOWN*   N/A     81  72  74 CALM      30.06R
6HR MIN TEMP:  81; 6HR MAX TEMP:  81;

SLIDELL        MOCLDY    77  75  93 CALM      30.05R THUNDER
6HR MIN TEMP:  76; 6HR MAX TEMP:  78;

BATON ROUGE    CLEAR     75  73  93 NE3       30.04R
6HR MIN TEMP:  75; 6HR MAX TEMP:  77;

BOOTHVILLE     CLEAR     81  78  91 SE3       30.05R
6HR MIN TEMP:  80; 6HR MAX TEMP:  83;

BELLE CHASSE   MOCLDY    77  73  87 CALM      30.04R
6HR MIN TEMP:  77; 6HR MAX TEMP:  80; 6HR PCP: TRACE;

BOGALUSA*        N/A     74  71  89 CALM      30.08R
6HR MIN TEMP:  74; 6HR MAX TEMP:  78;

GALLIANO*      NOT AVBL
NEW ROADS*       N/A     76  76  98 CALM      30.03S
6HR MIN TEMP:  75; 6HR MAX TEMP:  77;

GONZALES*        N/A     74  74 100 CALM      30.04R
6HR MIN TEMP:  74; 6HR MAX TEMP:  79;

HAMMOND*       PTCLDY    77  73  88 CALM      30.06R
HOUMA*         PTCLDY    75  72  88 CALM      30.04R
PORT FOURCHON* MOSUNNY   84  75  74 S5        30.06R

$$

MSZ070-080>082-021300-
SOUTHERN MISSISSIPPI

CITY           SKY/WX    TMP DP  RH WIND       PRES   REMARKS
MCCOMB         FOG       75  74  96 CALM      30.06R VSB 3/4
6HR MIN TEMP:  75; 6HR MAX TEMP:  76;

GULFPORT       PTCLDY    78  75  90 CALM      30.05R
6HR MIN TEMP:  77; 6HR MAX TEMP:  83;

BILOXI         PTCLDY    78  76  94 NE5       30.06R
6HR MIN TEMP:  78; 6HR MAX TEMP:  84;

PASCAGOULA     CLEAR     72  72 100 CALM      30.06R
6HR MIN TEMP:  71; 6HR MAX TEMP:  78;

STENNIS ARPT*  PTCLDY   N/A N/A N/A CALM      30.05

$$

COASTAL OBSERVATIONS
LAKE AND NEARSHORE STATIONS

STATION/POSITION TIME  TEMP    WIND        PRES    WAVE
                       AIR SEA DIR/SP/G            HT/PER
                 (UTC) (F)     (DEG/KT/KT) (MB)    (FT/S)
PASCAGOULA       1200   83     220/  4/  5 1017.4
WAVELAND YACHT   1200   81     350/  1/  2 1017.0
GRAND ISLE       1200   83 84  170/  4/  6 1017.9
SOUTHWEST PASS   1200   84 90  140/  5/  7 1017.7
NEW CANAL        1200   79 81  150/  2/  3 1017.9
SHELL BEACH      1200   82 81  140/  2/  3 1017.5

OFFSHORE STATIONS

STATION/POSITION TIME  TEMP    WIND        PRES    WAVE
                       AIR SEA DIR/SP/G            HT/PER
                 (UTC) (F)     (DEG/KT/KT) (MB)    (FT/S)
64 S DAUPHIN ISL 1100   83     160/  4       N/A

$$




USA.gov is the U.S. government's official web portal to all federal, state and local government web resources and services.